User: anonymous   Login
Location: Chervonnoye
(48.6000°N, 34.4000°E)
Time: 17:10:26
(UTC+00:00)
Language:

Nadezhda 1 Rocket - Orbit

View from above orbital plane
View from above orbital plane
View from above satellite
View from above satellite

Ground track
Ground track

The orbit data is extracted from the following two-line orbital elements,

1 20104U 89050B   21136.60364450  .00000073  00000-0  57663-4 0  9991
2 20104  82.9574 190.8790 0044711 139.8125 220.6353 13.77324387601153
Epoch (UTC): 16 May 2021 14:29:14
Eccentricity: 0.0044711
inclination: 82.9574°
perigee height: 940 km
apogee height: 1006 km
right ascension of ascending node: 190.8790°
argument of perigee: 139.8125°
revolutions per day: 13.77324387
mean anomaly at epoch: 220.6353°
orbit number at epoch: 60115

The dashed part of the orbit path shows where the satellite is in the earth's shadow,  

DLR